Regional Weather Roundup
Issued by NWS Pendleton, OR

Home | Current Version | Previous Version | Text Only | Print | Product List | Glossary On
Versions: 1 2 3 4 5 6 7 8 9 10 11 12 13 14 15 16 17 18 19 20 21 22 23 24 25 26 27 28 29 30 31 32 33 34 35 36 37 38 39 40 41 42 43 44 45 46 47 48 49 50
460
ASUS46 KPDT 032325
RWRPDT
PENDLETON REGIONAL WEATHER ROUNDUP
NATIONAL WEATHER SERVICE PENDLETON OREGON
400 PM PDT TUE MAY 3 2016

NOTE: FAIR INDICATES FEW OR NO CLOUDS BELOW 12,000 FEET WITH NO
SIGNIFICANT WEATHER AND/OR OBSTRUCTIONS TO VISIBILITY.

# INDICATES UNOFFICIAL STATION AND DATA

WAZ520-040010-
EAST SLOPES OF WASHINGTON CASCADES

CITY            SKY/WX      TMP DP  RH  WIND    PRES   REMARKS
#CLE ELUM HS    N/A         63  52  67  NW7     29.95R
#CLE ELUM 2NW   N/A         61  50  67  SW3     N/A
#CLE ELUM LAKE  N/A         58  51  77  CALM    29.89S
#GLENWOOD       N/A         72  45  38  SW5     29.92F
#MANASTASH CYN  N/A         74  41  30  E3      29.95F
#NELSON 3SW     N/A         59  55  87  CALM    30.11R
#NILE           N/A         75  44  33  CALM    29.17F
#RONALD 2NW     N/A         60  N/A N/A N2      29.89S
#TEANAWAY 4NE   N/A         67  54  63  SW2     N/A
#TROUT LAKE 1NE N/A         74  44  34  W1      29.92F
#TROUT LAKE 1E  N/A         74  46  37  CALM    29.96F
$$

WAZ521-040010-
SIMCOE HIGHLANDS

CITY            SKY/WX      TMP DP  RH  WIND    PRES   REMARKS
#BICKLETON HS   N/A         74  32  21  W3      N/A
#CENTERVILLE 1SWN/A         72  49  44  W14     29.88F
#GOLDENDALE 1NE N/A         76  29  18  SW2     N/A
#GOODNOE HILLS  N/A         79  43  28  NW23    29.85S
#LYLE 6NE       N/A         73  50  44  SW6     29.89S
$$

WAZ026-040010-
KITTITAS VALLEY

CITY            SKY/WX      TMP DP  RH  WIND    PRES   REMARKS
ELLENSBURG AP   CLOUDY      82  41  23  S7      29.94F
YTC-OPS AREA    SUNNY       74  36  25  E3      30.02F
#ELLENSBURG 3NE N/A         77  49  37  CALM    29.94F
#ELLENSBURG     N/A         81  45  28  S3      N/A
#ELLENSBURG 1E  N/A         81  N/A N/A CALM    N/A
#KITTITAS 3S    N/A         76  52  43  S2      29.87F
#THORP 6N       N/A         76  43  31  S8      29.91F
$$

WAZ027-040010-
YAKIMA VALLEY

CITY            SKY/WX      TMP DP  RH  WIND    PRES   REMARKS
SUNNYSIDE AP    MOCLDY      84  48  29  E6      29.88F
YAKIMA AIRPORT  PTCLDY      85  42  22  E3      29.91F
YAKIMA-VAGABOND SUNNY       81  41  24  W5      29.90F
#DONALD 2NE     N/A         92  11   5  E1      28.74F HX 88
#GRANDVIEW      N/A         84  39  20  E3      29.86F
#MABTON         N/A         84  41  22  E5      29.87F
#NACHES 2SW     N/A         81  49  33  E2      29.97F
#TERRACE HTS    N/A         82  47  29  CALM    29.84F
#TOPPENISH      N/A         83  46  27  CALM    29.78F
#WEST VALLEY    N/A         81  43  26  SW3     29.85F
#W YAKIMA       N/A         81  45  28  S1      29.87F
#WHITE SWAN 5E  N/A         81  51  35  N1      29.87F
#WILEY CITY 3W  N/A         81  39  22  CALM    29.89F
$$

WAZ028-040010-
LOWER COLUMBIA BASIN...WASHINGTON

CITY            SKY/WX      TMP DP  RH  WIND    PRES   REMARKS
HANFORD         CLOUDY      88  32  14  SE6     29.90F
PASCO           PTCLDY      89  35  15  NE7     29.88F
PROSSER AWOS    N/A         86  41  21  N5      29.90F
RICHLAND AWOS   PTCLDY      91  38  16  NE6     29.87F HX 87
#BENTON CITY    N/A         85  45  25  NE6     29.77F
#CONNELL 5N     N/A         88  38  17  SE1     29.88F
#CONNELL 5NW    N/A         85  43  23  CALM    29.85F
#ELTOPIA 6NW    N/A         90  45  21  CALM    28.89F HX 86
#KAHLOTUS       N/A         85  39  20  S3      29.89F
#KENNEWICK 3S   N/A         88  43  21  CALM    29.85F
#PATERSON       N/A         88  41  19  SW1     29.83F
#SAGEMOOR 2W    N/A         89  41  19  E1      29.72F
#TOUCHET 2S     N/A         85  58  40  NE2     29.83F
#WEST PASCO     N/A         89  49  25  N2      29.93F
$$

WAZ029-040010-
FOOTHILLS OF THE BLUES...WASHINGTON

CITY            SKY/WX      TMP DP  RH  WIND    PRES   REMARKS
WALLA WALLA AP  SUNNY       86  44  23  NE7     29.91F
#CLYDE 6NW      N/A         85  38  19  CALM    29.86F
#DAYTON SCHOOL  N/A         83  36  19  W5      29.96F
#LOWDEN 2SE     N/A         88  44  22  NE2     29.84F
#PLEASANT VIEW 1N/A         83  36  19  E3      29.91F
#PRESCOTT       N/A         88  39  18  CALM    29.86F
#SUDBURY        N/A         74  N/A N/A CALM    N/A
#WHITMAN COLLEGEN/A         87  41  20  N5      29.89F
#WAITSBURG 5S   N/A         84  40  21  N5      29.95F
#WAITSBURG 8N   N/A         90  31  12  SW3     29.76F HX 86
#WHITMAN MISSIONN/A         90  46  22  CALM    29.86F HX 87
$$

WAZ030-040010-
BLUE MOUNTAINS...WASHINGTON

CITY            SKY/WX      TMP DP  RH  WIND    PRES   REMARKS
#DIXIE 5SE      N/A         77  39  25  W8      29.94F
$$

ORZ009-041-WAZ024-040010-
COLUMBIA RIVER GORGE

CITY            SKY/WX      TMP DP  RH  WIND    PRES   REMARKS
HOOD RIVER AP   PTCLDY      73  45  37  NW14    29.95F
THE DALLES AP   PTCLDY      80  45  29  NW14    29.91F
#ARLINGTON AIRPON/A         83  44  25  W9      29.87F
#CELILO DOT     N/A         82  51  34  SW8     N/A
#MARYHILL 2W    N/A         78  45  31  N12     N/A
#MOSIER 1S      N/A         71  34  26  NW8     29.91F
#MURDOCK        N/A         77  48  36  N12     29.87F
#RUFUS DOT      N/A         84  44  25  W12     N/A

$$

ORZ510-040010-
NORTH CENTRAL OREGON

CITY            SKY/WX      TMP DP  RH  WIND    PRES   REMARKS
#ANTELOPE       N/A         74  44  34  SW1     29.74F
#COW CYN RST AREN/A         72  38  29  CALM    N/A
#DUFUR 9E       N/A         69  46  44  NW10    29.94F
#GRASS VALLEY   N/A         67  46  47  NW2     N/A
#KENT DOT       N/A         72  40  31  N6      N/A
#MAUPIN SCHOOL  N/A         78  50  38  N5      29.95F
#MORO SCHOOL    N/A         73  51  46  N5      29.97S
#TYGH VALLEY 2NEN/A         76  46  34  N12     29.87F
#WAPANITIA AIRPON/A         74  46  37  NE9     29.90R
#WASCO DOT      N/A         78  48  35  W3      N/A
#WASCO 5NE      N/A         74  47  38  SW7     29.90S
$$

ORZ511-040010-
CENTRAL OREGON

CITY            SKY/WX      TMP DP  RH  WIND    PRES   REMARKS
BEND AIRPORT    CLOUDY      68  36  31  SW13G26 30.01F
MADRAS AIRPORT  LGT DRIZZLE 72  39  30  NE5     29.99F
PRINEVILLE AP   PTCLDY      68  43  40  SW9     30.00F
REDMOND AIRPORT LGT RAIN    72  37  28  SW12    30.00F
#ASHWOOD SCHOOL N/A         73  42  33  CALM    29.96R
#BEND 1SW       N/A         63  42  46  N3      N/A
#BEND-AWBREY    N/A         66  41  40  SW10    29.89S
#BEND-KIM LN    N/A         68  41  37  SW5     30.00S
#CULVER         N/A         73  40  30  NW1     29.83F
#LAKE BILLY CHINN/A         72  N/A N/A W3      30.03F
#POWELL BUTTE   N/A         70  40  34  NW6     29.89F
#PRINEVILLE 3N  N/A         69  48  47  W1      29.89F
#WARM SPRINGS   N/A         77  42  29  E2      29.93R

$$


ORZ509-040010-
EAST SLOPES OF OREGON CASCADES

CITY            SKY/WX      TMP DP  RH  WIND    PRES   REMARKS
SISTERS AWOS    N/A         64  45  50  SW10    30.01R
#BLUE BOX PASS  N/A         64  N/A N/A CALM    N/A
#BLACK BUTTE RNCN/A         65  48  54  S1      29.94R
#CAMP SHERMAN   N/A         71  36  28  CALM    29.98F
#LA PINE DOT    N/A         60  33  36  E9      N/A
#LA PINE 4NW    N/A         60  41  49  E6      29.99R
#LAVA BUTTE DOT N/A         60  35  39  SE6     N/A
#SISTERS AIRPOR N/A         68  45  44  N2      30.17S
#SISTERS ODOT   N/A         69  N/A N/A CALM    N/A
#SISTERS 3N     N/A         63  42  46  SW3     30.03S
#SUNRIVER       N/A         59  48  67  NW1     29.94F
#TUMALO 3W      N/A         65  40  40  W9      29.78R
#WANOGA BUTTE D N/A         56  30  37  SE3     N/A

$$

ORZ044-040010-
LOWER COLUMBIA BASIN...OREGON

CITY            SKY/WX      TMP DP  RH  WIND    PRES   REMARKS
HERMISTON       MOCLDY      91  37  15  N7      29.86F HX 87
#BOARDMAN SCHOOLN/A         86  36  17  N2      29.86F
#BOARDMAN 8SW   N/A         85  43  23  NW2     29.84F
#ECHO 8SW       N/A         86  46  25  NW5     29.88F
#I-84 EX 198 DOTN/A         86  46  25  E14     N/A
#UMATILLA SCHOOLN/A         92  57  31  NW3     29.91F HX 91
#UMATILLA       N/A         90  43  20  CALM    29.78F HX 86
$$

ORZ507-040010-
NORTHERN FOOTHILLS OF THE BLUES

CITY            SKY/WX      TMP DP  RH  WIND    PRES   REMARKS
PENDLETON AIRPT PTCLDY      85  33  15  VRB5    29.90F
#ADAMS 3WNW     N/A         85  38  19  E1      29.83F
#ATHENA         N/A         85  39  20  CALM    29.87F
#CAYUSE         N/A         82  42  24  E2      29.83F
#HELIX SCHOOL   N/A         85  41  21  N1      29.85F
#HELIX 3N       N/A         80  39  23  NE12    29.91F
#HELIX 6SW      N/A         83  39  21  E5      29.91F
#HOLDMAN 5SE    N/A         84  43  24  VRB2    29.90F
#HOLDMAN 6E     N/A         83  39  21  CALM    29.67F
#M-F FERNDALE   N/A         90  46  22  CALM    29.88F HX 87
#M-F GROVE ELEM N/A         88  35  15  S2      29.88F
#M-FREEWATER 5SEN/A         87  48  26  CALM    29.91F
#PENDLETON DNTN N/A         87  44  22  NE2     29.89F
#PDT AQUATIC CTRN/A         87  40  19  E3      29.93F
#PDT SUNRIDGE   N/A         86  39  19  CALM    29.90F
#PENDLETON 7NW  N/A         85  49  29  CALM    27.45S
#PILOT ROCK     N/A         84  41  22  CALM    29.92F
#TUTUILLA       N/A         82  42  24  CALM    29.85F
#UMAPINE 2E     N/A         90  45  21  NE5     29.85F HX 86
#WESTON SCHOOL  N/A         82  33  17  NW5     29.84F

$$

ORZ508-040010-
SOUTHERN FOOTHILLS OF THE BLUES

CITY            SKY/WX      TMP DP  RH  WIND    PRES   REMARKS
#AJAX           N/A         72  44  37  SW13    27.73R
#CONDON SCHOOL  N/A         74  41  30  N7      29.94F
#CONDON 5W      N/A         69  44  40  N9      29.98F
#FOSSIL SCHOOL  N/A         78  37  23  CALM    29.92F
#HEPPNER EOC    N/A         81  41  24  NE3     29.77F
#HEPPNER 4NE    N/A         77  40  26  E3      29.84F
#LEXINGTON 2SE  N/A         83  42  24  N3      29.89S
#OLEX 4N        N/A         79  50  36  CALM    29.90F
#RUGGS 5NE      N/A         80  35  20  VRB7    30.14F
#RUGGS 2SW      N/A         77  40  26  N7      29.85F

$$

ORZ502-503-040010-
BLUE MOUNTAINS

CITY            SKY/WX      TMP DP  RH  WIND    PRES   REMARKS
MEACHAM         PTCLDY      77  34  21  VRB5    30.03F
#BATTLE MTN DOT N/A         75  45  34  S3      N/A
#GREENHORN 9SW  N/A         76  35  22  E6      26.23F
#HARDMAN 10S    N/A         72  32  23  CALM    29.99F
#HEPPNER 15SE   N/A         76  33  21  CALM    25.56F
#LADD CYN SMT   N/A         76  31  19  SW8     N/A
#LADD CREEK ODOTN/A         80  42  26  S6      N/A
#LONG CREEK HS  N/A         74  34  23  CALM    N/A
#N POWDER DOT   N/A         75  39  27  S13     N/A
#PIKES PEAK     N/A         74  37  26  E3      27.99S
#TOLLGATE       N/A         67  34  29  S7      29.97F
#TROY SCHOOL    N/A         84  44  25  NE1     29.73F
#UKIAH          N/A         79  37  22  SW2     29.83F
#WESTON 4E      N/A         76  41  28  E9      29.84F
$$

ORZ505-040010-
JOHN DAY BASIN

CITY            SKY/WX      TMP DP  RH  WIND    PRES   REMARKS
JOHN DAY        PTCLDY      78  29  17  S6      30.02F
#DAYVILLE SCHOOLN/A         82  30  15  SE6     29.91F
#MITCHELL       N/A         79  42  27  S2      30.12F
#MITCHELL 8NW   N/A         74  29  19  SE3     30.04F
#MONUMENT HS    N/A         76  41  28  SE1     29.87F
#MT. VERNON 5SE N/A         74  30  20  E5      29.99F
#SPRAY SCHOOL   N/A         84  N/A N/A CALM    N/A
#WINLOCK        N/A         75  33  21  N7      29.94F
$$

ORZ506-040010-
OCHOCO AND JOHN DAY HIGHLANDS

CITY            SKY/WX      TMP DP  RH  WIND    PRES   REMARKS
#HORSE RIDGE DO N/A         67  34  29  SW10    N/A
#KEYES SMT DOT  N/A         71  30  22  E9      N/A
#PAULINA SCHOOL N/A         75  39  27  E7      29.25F
#PINE MTN OBS   N/A         55  37  51  S7      N/A
#PRAIRIE CITY   N/A         77  34  21  E9      30.00F
#SENECA         N/A         71  N/A N/A S8      N/A
#SENECA 9NW     N/A         71  32  24  SE1     29.97F
$$

ORZ049-040010-
GRANDE RONDE VALLEY

CITY            SKY/WX      TMP DP  RH  WIND    PRES   REMARKS
LA GRANDE       PTCLDY      79  36  21  S16G25  30.00F
#COVE           N/A         78  43  29  S7      30.05F
#COVE SCHOOL    N/A         79  38  23  CALM    30.04F
#COVE 6NW       N/A         79  40  25  S5      29.90F
#ELGIN 3N       N/A         76  31  19  S6      29.98F
#ELGIN 1E       N/A         80  40  24  CALM    N/A
#IMBLER SCHOOL  N/A         76  35  22  S10     29.97F
#ISLAND CITY 4N N/A         72  56  57  S1      30.00F
#LADD CYN DOT   N/A         79  41  26  SE12    N/A
#LA GRANDE ELEM N/A         78  37  23  S9      30.01F
#UNION 1S       N/A         79  41  26  S7      29.85F
$$

ORZ050-040010-
WALLOWA COUNTY

CITY            SKY/WX      TMP DP  RH  WIND    PRES   REMARKS
JOSEPH AIRPORT  SUNNY       73  30  20  S7      30.10F
#ENTERPRISE AP  N/A         49  29  46  CALM    30.01F
#ENTERPRISE HS  N/A         73  36  26  SE3     30.06F
#IMNAHA SCHOOL  N/A         82  38  21  S6      29.97F
#IMNAHA 10S     N/A         78  37  23  W2      30.01F
#JOSEPH 3W      N/A         73  32  22  CALM    29.95F
#LOSTINE        N/A         75  37  25  E7      29.75F
#MT HOWARD 8000 N/A         49  28  44  S7      30.27F
#PROMISE 1S     N/A         72  40  31  NE3     30.04F
#WALLOWA SCHOOL N/A         81  37  21  CALM    29.98F



$$



USA.gov is the U.S. government's official web portal to all federal, state and local government web resources and services.